TimeMST,TemperatureF,Dew PointF,Humidity,Sea Level PressureIn,VisibilityMPH,Wind Direction,Wind SpeedMPH,Gust SpeedMPH,PrecipitationIn,Events,Conditions,WindDirDegrees,DateUTC
12:15 AM,21.2,15.8,80,29.66,10.0,Calm,Calm,-,N/A,,Clear,0,2013-02-20 07:15:00
12:35 AM,23.0,17.6,80,29.66,10.0,South,3.5,-,N/A,,Clear,180,2013-02-20 07:35:00
12:55 AM,21.2,15.8,80,29.66,10.0,SSE,3.5,-,N/A,,Clear,150,2013-02-20 07:55:00
1:15 AM,23.0,15.8,74,29.66,10.0,SSE,4.6,-,N/A,,Clear,150,2013-02-20 08:15:00
1:55 AM,19.4,15.8,86,29.66,10.0,NNE,3.5,-,N/A,,Clear,20,2013-02-20 08:55:00
2:15 AM,19.4,15.8,86,29.66,10.0,Calm,Calm,-,N/A,,Clear,0,2013-02-20 09:15:00
2:35 AM,19.4,15.8,86,29.66,10.0,Calm,Calm,-,N/A,,Clear,0,2013-02-20 09:35:00
2:55 AM,19.4,15.8,86,29.66,10.0,Calm,Calm,-,N/A,,Clear,0,2013-02-20 09:55:00
3:15 AM,19.4,15.8,86,29.66,10.0,NE,5.8,-,N/A,,Clear,50,2013-02-20 10:15:00
3:35 AM,17.6,15.8,93,29.66,10.0,NE,4.6,-,N/A,,Clear,40,2013-02-20 10:35:00
4:35 AM,17.6,15.8,93,29.67,10.0,NNE,3.5,-,N/A,,Clear,30,2013-02-20 11:35:00
4:55 AM,17.6,15.8,93,29.67,10.0,Calm,Calm,-,N/A,,Clear,0,2013-02-20 11:55:00
5:15 AM,19.4,15.8,86,29.68,10.0,SSW,3.5,-,N/A,,Clear,210,2013-02-20 12:15:00
5:35 AM,17.6,14.0,86,29.67,10.0,South,4.6,-,N/A,,Clear,170,2013-02-20 12:35:00
5:55 AM,15.8,14.0,93,29.67,10.0,SSW,5.8,-,N/A,,Clear,210,2013-02-20 12:55:00
6:35 AM,15.8,12.2,86,29.67,10.0,SE,6.9,-,N/A,,Clear,140,2013-02-20 13:35:00
6:55 AM,17.6,14.0,86,29.67,10.0,Calm,Calm,-,N/A,,Clear,0,2013-02-20 13:55:00
7:15 AM,15.8,12.2,86,29.68,10.0,South,4.6,-,N/A,,Clear,180,2013-02-20 14:15:00
7:35 AM,15.8,12.2,86,29.69,10.0,South,6.9,-,N/A,,Clear,180,2013-02-20 14:35:00
7:55 AM,17.6,14.0,86,29.69,10.0,Calm,Calm,-,N/A,,Clear,0,2013-02-20 14:55:00
8:15 AM,19.4,15.8,86,29.69,10.0,Calm,Calm,-,N/A,,Clear,0,2013-02-20 15:15:00
8:35 AM,19.4,15.8,86,29.70,10.0,Calm,Calm,-,N/A,,Clear,0,2013-02-20 15:35:00
8:55 AM,21.2,17.6,86,29.70,10.0,Calm,Calm,-,N/A,,Clear,0,2013-02-20 15:55:00
9:15 AM,24.8,19.4,80,29.70,10.0,Calm,Calm,-,N/A,,Clear,0,2013-02-20 16:15:00
9:55 AM,26.6,17.6,69,29.70,10.0,NE,4.6,-,N/A,,Clear,40,2013-02-20 16:55:00
10:15 AM,28.4,17.6,64,29.70,10.0,North,4.6,-,N/A,,Clear,350,2013-02-20 17:15:00
10:35 AM,28.4,17.6,64,29.70,10.0,NNE,4.6,-,N/A,,Clear,30,2013-02-20 17:35:00
10:55 AM,30.2,17.6,60,29.70,10.0,NNE,10.4,-,N/A,,Clear,30,2013-02-20 17:55:00
11:55 AM,30.2,17.6,60,29.69,10.0,NNE,12.7,-,N/A,,Clear,30,2013-02-20 18:55:00
12:15 PM,30.2,17.6,60,29.68,10.0,NE,15.0,-,N/A,,Clear,40,2013-02-20 19:15:00
12:35 PM,32.0,17.6,55,29.68,10.0,NNE,12.7,-,N/A,,Clear,30,2013-02-20 19:35:00
12:55 PM,32.0,19.4,60,29.67,10.0,NE,13.8,18.4,N/A,,Clear,40,2013-02-20 19:55:00
1:15 PM,33.8,17.6,52,29.66,10.0,NNE,15.0,-,N/A,,Clear,30,2013-02-20 20:15:00
1:35 PM,33.8,19.4,56,29.66,10.0,NNE,17.3,21.9,N/A,,Clear,30,2013-02-20 20:35:00
1:55 PM,33.8,17.6,52,29.66,10.0,NE,15.0,21.9,N/A,,Clear,40,2013-02-20 20:55:00
2:15 PM,33.8,17.6,52,29.65,10.0,NNE,16.1,20.7,N/A,,Clear,30,2013-02-20 21:15:00
2:35 PM,33.8,17.6,52,29.66,10.0,NE,13.8,19.6,N/A,,Clear,40,2013-02-20 21:35:00
2:55 PM,32.0,19.4,60,29.66,10.0,NNE,15.0,18.4,N/A,,Clear,20,2013-02-20 21:55:00
3:15 PM,30.2,17.6,60,29.66,10.0,NNE,13.8,-,N/A,,Clear,30,2013-02-20 22:15:00
3:35 PM,30.2,19.4,64,29.67,10.0,NNE,13.8,-,N/A,,Clear,20,2013-02-20 22:35:00
3:55 PM,30.2,17.6,60,29.67,10.0,NNE,12.7,-,N/A,,Clear,30,2013-02-20 22:55:00
4:35 PM,28.4,19.4,69,29.68,10.0,NNE,12.7,-,N/A,,Clear,30,2013-02-20 23:35:00
4:55 PM,28.4,19.4,69,29.68,10.0,NNE,15.0,18.4,N/A,,Clear,20,2013-02-20 23:55:00
5:15 PM,26.6,19.4,74,29.69,10.0,NNE,11.5,-,N/A,,Clear,30,2013-02-21 00:15:00
5:35 PM,26.6,19.4,74,29.70,10.0,NNE,10.4,-,N/A,,Clear,30,2013-02-21 00:35:00
5:55 PM,24.8,19.4,80,29.70,10.0,NNE,11.5,-,N/A,,Mostly Cloudy,20,2013-02-21 00:55:00
6:15 PM,24.8,19.4,80,29.71,10.0,NE,6.9,-,N/A,,Partly Cloudy,40,2013-02-21 01:15:00